Weather History for Flagstaff, AZ

Change the Weather History Date:

Sunday, April 14, 2013

  Actual Average Record
Temperature  
Mean Temperature 52 °F 43 °F  
Max Temperature 62 °F 58 °F 75 °F (1937)
Min Temperature 42 °F 28 °F 5 °F (1972)
Degree Days  
Heating Degree Days 13 22  
Month to date heating degree days 295 332  
Since 1 July heating degree days 5931 6039  
Cooling Degree Days 0 0  
Month to date cooling degree days 0 0  
Year to date cooling degree days 0 0  
Growing Degree Days 2 (Base 50)    
Moisture  
Dew Point 25 °F    
Average Humidity 34    
Maximum Humidity 45    
Minimum Humidity 23    
Precipitation  
Precipitation 0.00 in 0.04 in 0.71 in (1976)
Month to date precipitation 0.12 0.64  
Year to date precipitation 5.00 6.97  
Snow  
Snow 0.00 in 0.20 in 9.70 in (2012)
Month to date snowfall 1.4 3.9  
Since 1 July snowfall 69.7 97.8  
Snow Depth 0.00 in    
Sea Level Pressure  
Sea Level Pressure 29.61 in    
Wind  
Wind Speed 19 mph (SW)    
Max Wind Speed 32 mph    
Max Gust Speed 40 mph    
Visibility 10 miles    
Events      
T = Trace of Precipitation, MM = Missing Value Source: NWS Daily Summary

Daily Weather History Graph

Daily Weather History Graph

Search for Another Location

Airport:

Trip Planner

Search our weather history database for the weather conditions in past years. The results will help you decide how hot, cold, wet, or windy it might be!

Date:

Astronomy

Apr. 14, 2013 Rise Set
Actual Time 5:55 AM MST 6:58 PM MST
Civil Twilight 5:29 AM MST 7:24 PM MST
Nautical Twilight 4:58 AM MST 7:55 PM MST
Astronomical Twilight 4:26 AM MST 8:28 PM MST
Moon 8:41 AM MST (4/14) 11:08 PM MST (4/14)
Length of Visible Light 13h 55m
Length of Day
13h 03m
Waxing Crescent, 18% of the Moon is Illuminated
Apr 14
Waxing Crescent
Apr 18
First Quarter
Apr 25
Full
May 2
Last Quarter
May 9
New

Hourly Weather History & Observations

Time (MST) Temp. Windchill Dew Point Humidity Pressure Visibility Wind Dir Wind Speed Gust Speed Precip Events Conditions
12:57 AM 48.9 °F - 24.1 °F 38% 29.59 in 10.0 mi SW 17.3 mph 29.9 mph N/A   Clear
1:57 AM 48.0 °F - 25.0 °F 41% 29.58 in 10.0 mi SW 19.6 mph 28.8 mph N/A   Clear
2:57 AM 46.0 °F 38.8 °F 24.1 °F 42% 29.59 in 10.0 mi SW 18.4 mph 26.5 mph N/A   Clear
3:57 AM 44.1 °F 36.5 °F 24.1 °F 45% 29.59 in 10.0 mi WSW 17.3 mph - N/A   Clear
4:57 AM 44.1 °F 37.7 °F 23.0 °F 43% 29.61 in 10.0 mi WSW 12.7 mph 19.6 mph N/A   Clear
5:57 AM 42.1 °F 38.4 °F 21.9 °F 45% 29.64 in 10.0 mi WSW 5.8 mph - N/A   Clear
6:57 AM 44.1 °F 38.1 °F 23.0 °F 43% 29.66 in 10.0 mi SW 11.5 mph - N/A   Clear
7:57 AM 46.9 °F - 24.1 °F 41% 29.65 in 10.0 mi SW 16.1 mph 25.3 mph N/A   Clear
8:57 AM 50.0 °F - 24.1 °F 36% 29.65 in 10.0 mi SW 13.8 mph 27.6 mph N/A   Clear
9:57 AM 52.0 °F - 25.0 °F 35% 29.66 in 10.0 mi SW 17.3 mph 26.5 mph N/A   Clear
10:57 AM 55.0 °F - 25.0 °F 31% 29.66 in 10.0 mi SW 18.4 mph 27.6 mph N/A   Clear
11:57 AM 57.9 °F - 25.0 °F 28% 29.65 in 10.0 mi SW 19.6 mph 31.1 mph N/A   Clear
12:57 PM 60.1 °F - 25.0 °F 26% 29.62 in 10.0 mi SSW 25.3 mph 33.4 mph N/A   Clear
1:57 PM 61.0 °F - 24.1 °F 24% 29.61 in 10.0 mi SW 21.9 mph 32.2 mph N/A   Clear
2:57 PM 62.1 °F - 25.0 °F 24% 29.59 in 10.0 mi SSW 28.8 mph 35.7 mph N/A   Clear
3:57 PM 61.0 °F - 26.1 °F 26% 29.59 in 10.0 mi SW 20.7 mph 39.1 mph N/A   Clear
4:57 PM 57.9 °F - 26.1 °F 30% 29.59 in 10.0 mi SSW 24.2 mph 36.8 mph N/A   Clear
5:57 PM 55.9 °F - 27.0 °F 33% 29.61 in 10.0 mi SSW 21.9 mph 32.2 mph N/A   Clear
6:57 PM 53.1 °F - 26.1 °F 35% 29.60 in 10.0 mi SW 21.9 mph 31.1 mph N/A   Clear
7:57 PM 51.1 °F - 25.0 °F 36% 29.60 in 10.0 mi SSW 23.0 mph 31.1 mph N/A   Clear
8:57 PM 50.0 °F - 25.0 °F 38% 29.60 in 10.0 mi SW 20.7 mph 29.9 mph N/A   Clear
9:57 PM 50.0 °F - 26.1 °F 39% 29.58 in 10.0 mi SW 23.0 mph 32.2 mph N/A   Clear
10:57 PM 48.9 °F - 27.0 °F 43% 29.57 in 10.0 mi SW 21.9 mph 29.9 mph N/A   Clear
11:57 PM 46.9 °F - 28.0 °F 48% 29.56 in 10.0 mi SW 25.3 mph 31.1 mph N/A   Clear